Location: Artiguedieu
(43.5000°N, 0.5454°E)
Time: 08:03:01
(UTC+00:00)

Explorer 7 - Pass Details

Date: 09 August 2021
Orbit: 484 x 676 km, 50.3° (Epoch: 22 September)

Event Time Altitude Azimuth Distance (km) Brightness Sun altitude
Rises 00:46:52 0° 200° (SSW) 2,553 - -29.8°
Reaches altitude 10° 00:49:29 10° 182° (S) 1,662 - -29.7°
Maximum altitude 00:52:11 19° 135° (SE) 1,201 - -29.6°
Drops below altitude 10° 00:54:54 10° 89° (E) 1,664 - -29.5°
Exits shadow 00:55:55 - 80° (E) 1,991 9.9 -29.5°
Sets 00:57:30 0° 71° (ENE) 2,556 10.7 -29.4°
